sat.trackr.live / text

‹ back to catalog

STARLINK-35331

NORAD 66468 · 2025-262N

PAYLOAD ACTIVE UNKNOWN

§ Identity

Operator
Country
US
Launch date
2025-11-15
Launch site
AFETR
Launch vehicle
Mass (kg)
RCS (m²)

Purposes: comms

External: N2YO · Heavens-Above · Gunter

§ Orbital elements

Epoch: 2026-09-20T08:27:38.666304Z

Period
94.27 min
Inclination
42.9977°
Eccentricity
0.0000451
Mean motion
15.27586008 rev/d
Perigee alt
482.7 km
Apogee alt
483.3 km
Semi-major
6,861.2 km
B*
3.6394e-4
RAAN
277.1539°
Arg perigee
294.1787°
Mean anomaly
65.9017°
Rev number
4,867

§ Raw data

STARLINK-353311 66468U 25262N   26263.35253086  .00009768  00000+0  36394-3 0  99952 66468  42.9977 277.1539 0000451 294.1787  65.9017 15.27586008 48677

JSON: /api/v1/satellites/66468 · /tle

For live sub-satellite position, see the globe view (requires WebGL).

§ Visibility from observer

Set your observer location to see the next 7 days of passes ≥ 10°. The values pass through the URL so the page stays shareable.

No JS? Fill the form by hand. The geolocation button needs JavaScript.